Location: G�ppingen
(48.7089°N, 9.6563°E)
Time: 14:41:57
(UTC+01:00)

ISS - Pass Details

Date: 10 January 2018
Orbit: 402 x 407 km, 51.6° (Epoch: 18 January)

Event Time Altitude Azimuth Distance (km) Brightness Sun altitude
Exits shadow 04:58:42 12° 77° (ENE) 1,379 -0.3 -31.0°
Drops below altitude 10° 04:58:56 10° 78° (ENE) 1,468 -0.1 -31.0°
Sets 05:01:04 0° 84° (E) 2,329 1.2 -30.6°
